Flag for U.S.A. Weather past 2 weeks in Odessa, Texas, U.S.A.

Now
59 °F

Clear.


Feels Like: 56 °F
Forecast: 48 / 66 °F
Wind: 17 mph from West

Location: Odessa-Schlemeyer Field

Current Time: Dec 21, 2014 at 10:19:07 PM

Latest Report: Dec 21, 2014 at 8:53 PM


Visibility: 10 mi

Pressure: 29.68 "Hg

Humidity: 25%

Dew point: 23 °F

Location of OdessaLocation

Historic Weather in Odessa — Graph

°F

Odessa temperature yesterday

Maximum temperature yesterday: 59 °F (at 3:53 PM)
Minimum temperature yesterday: 35 °F (at 12:53 AM)
Average temperature yesterday: 45 °F

Past Weeks' High & Low Weather Summary

 TemperatureHumidityPressure
High72 °F (Dec 13, 3:53 PM)97% (Dec 8, 3:53 AM)30.36 "Hg (Dec 8, 3:53 AM)
Low35 °F (Dec 16, 3:53 AM)14% (Dec 14, 4:53 PM)29.67 "Hg (Dec 21, 4:53 PM)
Average52 °F67%30.07 "Hg
* Reported Dec 6 8:53 PM — Dec 21 8:53 PM, Odessa, Weather by CustomWeather, © 2014

Note: Actual official high and low records may vary slightly from our data, if they occured in-between our weather recording intervals... More about our weather records

Advertising

Odessa weather history for previous 24 hours

 ConditionsComfort  
Time TempWeatherWind HumidityBarometerVisibility
8:53 PM
Dec 21
59 °FClear.17 mph25%29.68 "Hg10 mi
7:53 PM60 °FClear.17 mph24%29.68 "Hg10 mi
6:53 PM61 °FClear.15 mph22%29.68 "Hg10 mi
5:53 PM63 °FClear.17 mph23%29.68 "Hg10 mi
4:53 PM66 °FSunny.21 mph19%29.67 "Hg9 mi
3:53 PM68 °FSunny.22 mph19%29.70 "Hg10 mi
2:53 PM65 °FSunny.16 mph24%29.74 "Hg10 mi
1:53 PM63 °FSunny.18 mph28%29.75 "Hg10 mi
12:53 PM60 °FSunny.15 mph31%29.83 "Hg10 mi
11:53 AM56 °FSunny.16 mph39%29.88 "Hg10 mi
10:53 AM52 °FSunny.15 mph49%29.92 "Hg10 mi
9:53 AM46 °FSunny.10 mph79%29.94 "Hg7 mi
8:53 AM43 °FFog.7 mph93%29.96 "Hg3 mi
8:02 AM42 °FFog.13 mph92%29.99 "Hg1 mi
7:53 AM42 °FFog.12 mph92%29.95 "Hg0 mi
6:53 AM42 °FFog.9 mph92%29.93 "Hg1 mi
6:03 AM42 °FFog.8 mph96%29.99 "Hg1 mi
5:53 AM43 °FFog.10 mph93%29.94 "Hg1 mi
4:53 AM44 °FFog.10 mph89%29.93 "Hg3 mi
3:53 AM45 °FFog.14 mph90%29.94 "Hg4 mi
2:53 AM45 °FFog.12 mph90%29.94 "Hg3 mi
1:53 AM45 °FFog.12 mph90%29.96 "Hg5 mi
12:53 AM44 °FFog.12 mph93%29.99 "Hg4 mi
11:53 PM
Dec 20
42 °FFog.7 mph92%30.03 "Hg6 mi
10:53 PM44 °FClear.9 mph89%30.04 "Hg7 mi
Weather by CustomWeather, © 2014

See weather overviewHow to use our weather pages